K4FB Weather Reports


time (UTC)temp
C
wind
direction
speed
KPH
gust
KPH
rain 1hr
cm
rain 24hr
cm
rain mn
cm
humidity
%
barometer
mb
20260906203020 36 303 4.8 14.5 0.00 0.13 0.00 55 1011.7
20260906202510 36 333 4.8 12.9 0.00 0.13 0.00 56 1011.6
20260906202007 36 287 1.6 12.9 0.00 0.13 0.00 57 1011.6
20260906201524 35 268 1.6 14.5 0.00 0.13 0.00 56 1011.6
20260906201011 35 310 3.2 16.1 0.00 0.13 0.00 55 1011.7
20260906200512 36 263 3.2 16.1 0.00 0.13 0.00 55 1011.9
20260906200025 35 235 6.4 14.5 0.00 0.13 0.00 57 1012.1
20260906195513 35 292 3.2 16.1 0.00 0.13 0.00 56 1012.2
20260906195016 35 277 3.2 16.1 0.00 0.13 0.00 56 1012.3
20260906194521 35 292 6.4 17.7 0.00 0.13 0.00 56 1012.3
20260906194013 35 297 9.7 17.7 0.00 0.13 0.00 58 1012.3
20260906193516 35 236 4.8 20.9 0.00 0.13 0.00 60 1012.3
20260906193035 35 273 8.0 20.9 0.00 0.13 0.00 60 1012.4
20260906192505 35 276 4.8 17.7 0.00 0.13 0.00 59 1012.6
20260906192007 34 273 3.2 17.7 0.00 0.13 0.00 59 1012.8
20260906191523 34 269 4.8 16.1 0.00 0.13 0.00 62 1012.9
20260906191010 34 202 3.2 14.5 0.00 0.13 0.00 61 1013.0
20260906190514 34 305 3.2 14.5 0.00 0.13 0.00 59 1012.9
20260906190030 34 275 1.6 14.5 0.00 0.13 0.00 60 1012.8
20260906185512 34 276 1.6 16.1 0.00 0.13 0.00 67 1012.8
20260906185014 33 250 4.8 16.1 0.00 0.13 0.00 66 1012.8
20260906184533 33 276 4.8 17.7 0.00 0.13 0.00 64 1012.9
20260906184015 33 240 8.0 19.3 0.00 0.13 0.00 66 1013.0
20260906183508 33 264 3.2 19.3 0.00 0.13 0.00 64 1013.1
20260906183034 33 306 8.0 19.3 0.00 0.13 0.00 62 1013.2
20260906182516 33 286 4.8 17.7 0.00 0.13 0.00 63 1013.1
20260906182018 33 270 8.0 17.7 0.00 0.13 0.00 63 1013.1
20260906181525 33 270 6.4 19.3 0.00 0.13 0.00 64 1013.2
20260906181007 33 316 6.4 17.7 0.00 0.13 0.00 64 1013.3
20260906180512 33 257 4.8 20.9 0.00 0.13 0.00 64 1013.2
20260906180026 33 275 3.2 20.9 0.00 0.13 0.00 64 1013.3
20260906175514 33 290 1.6 17.7 0.00 0.13 0.00 66 1013.2
20260906175014 33 284 8.0 17.7 0.00 0.13 0.00 67 1013.2
20260906174530 33 273 4.8 19.3 0.00 0.13 0.00 68 1013.4
20260906174010 32 263 3.2 19.3 0.00 0.13 0.00 67 1013.4
20260906173514 32 258 11.3 29.0 0.00 0.13 0.00 67 1013.4
20260906173033 32 289 14.5 29.0 0.00 0.13 0.00 67 1013.5
20260906172516 33 267 6.4 27.4 0.00 0.13 0.00 68 1013.5
20260906172011 33 268 9.7 27.4 0.00 0.13 0.00 67 1013.6
20260906171531 33 277 6.4 22.5 0.00 0.13 0.00 64 1013.5
20260906171017 34 215 0.0 12.9 0.00 0.13 0.00 68 1013.4
20260906170512 33 234 1.6 17.7 0.00 0.13 0.00 69 1013.6
20260906170023 33 195 6.4 17.7 0.00 0.13 0.00 67 1013.8
20260906165510 33 250 0.0 3.2 0.00 0.13 0.00 71 1013.7
20260906165011 33 184 0.0 6.4 0.00 0.13 0.00 68 1013.8
20260906164535 33 259 0.0 6.4 0.00 0.13 0.00 67 1013.9
20260906164012 33 237 0.0 6.4 0.00 0.13 0.00 69 1014.0
20260906163513 33 238 0.0 6.4 0.00 0.13 0.00 68 1014.0
20260906163026 33 222 0.0 12.9 0.00 0.13 0.00 70 1014.0
20260906162518 33 332 0.0 12.9 0.00 0.13 0.00 70 1014.1
20260906162013 33 24 0.0 11.3 0.00 0.13 0.00 69 1014.1
20260906161535 32 242 0.0 11.3 0.00 0.13 0.00 73 1014.2
20260906161013 32 235 0.0 1.6 0.00 0.13 0.00 74 1014.2
20260906160514 32 331 0.0 3.2 0.00 0.13 0.00 74 1014.4
20260906160034 32 253 0.0 3.2 0.00 0.13 0.00 77 1014.5
20260906155519 32 239 0.0 3.2 0.00 0.13 0.00 77 1014.5
20260906155009 32 248 0.0 3.2 0.00 0.13 0.00 73 1014.6
20260906154528 32 257 0.0 1.6 0.00 0.13 0.00 73 1014.6
20260906154012 32 281 0.0 4.8 0.00 0.13 0.00 75 1014.7
20260906153513 32 237 0.0 4.8 0.00 0.13 0.00 76 1014.6
20260906153030 32 192 0.0 3.2 0.00 0.13 0.00 79 1014.7
20260906152516 31 215 0.0 1.6 0.00 0.13 0.00 77 1014.6
20260906152015 31 219 0.0 1.6 0.00 0.13 0.00 76 1014.6
20260906151531 31 350 0.0 1.6 0.00 0.13 0.00 78 1014.7
20260906151019 31 252 0.0 1.6 0.00 0.13 0.00 79 1014.7
20260906150516 31 245 0.0 1.6 0.00 0.13 0.00 80 1014.7
20260906150026 31 281 0.0 1.6 0.00 0.13 0.00 80 1014.9
20260906145517 30 265 0.0 1.6 0.00 0.13 0.00 80 1014.9
20260906145020 30 225 0.0 1.6 0.00 0.13 0.00 82 1014.9
20260906144532 30 261 0.0 1.6 0.00 0.13 0.00 84 1014.7
20260906144012 30 207 0.0 0.0 0.00 0.13 0.00 86 1014.7
20260906143514 29 223 0.0 0.0 0.00 0.13 0.00 88 1014.8
20260906143025 29 200 0.0 0.0 0.00 0.13 0.00 90 1014.8
20260906142512 28 221 0.0 1.6 0.00 0.13 0.00 89 1014.9
20260906142014 28 232 0.0 1.6 0.00 0.13 0.00 90 1015.0
20260906141531 27 266 0.0 0.0 0.00 0.13 0.00 89 1015.1
20260906141018 27 271 0.0 0.0 0.00 0.13 0.00 89 1015.1
20260906140516 27 245 0.0 0.0 0.00 0.13 0.00 90 1015.1
20260906140030 27 213 0.0 0.0 0.00 0.13 0.00 91 1015.1
20260906135516 27 238 0.0 0.0 0.00 0.13 0.00 92 1015.1
20260906135012 27 54 0.0 0.0 0.00 0.13 0.00 92 1015.1
20260906134532 26 223 0.0 0.0 0.00 0.13 0.00 93 1015.1
20260906134015 26 223 0.0 0.0 0.00 0.13 0.00 93 1015.1
20260906133519 26 223 0.0 0.0 0.00 0.13 0.00 93 1015.1
20260906133030 26 198 0.0 0.0 0.00 0.13 0.00 93 1015.2
20260906132506 26 198 0.0 0.0 0.00 0.13 0.00 95 1015.2
20260906132006 26 198 0.0 0.0 0.00 0.13 0.00 94 1015.2
20260906131513 26 198 0.0 0.0 0.00 0.13 0.00 94 1015.2
20260906131003 26 198 0.0 0.0 0.00 0.13 0.00 95 1015.1
20260906130504 26 198 0.0 0.0 0.00 0.13 0.00 95 1015.0
20260906130011 25 198 0.0 0.0 0.00 0.13 0.00 95 1014.9
20260906125506 25 198 0.0 0.0 0.00 0.13 0.00 95 1015.0
20260906125004 25 198 0.0 0.0 0.00 0.13 0.00 95 1015.0
20260906124510 25 198 0.0 0.0 0.00 0.13 0.00 95 1015.0
20260906124004 25 198 0.0 0.0 0.00 0.13 0.00 95 1014.9
20260906123503 24 198 0.0 0.0 0.00 0.13 0.00 95 1014.8
20260906123012 24 198 0.0 0.0 0.00 0.13 0.00 95 1014.8
20260906122506 24 198 0.0 0.0 0.00 0.13 0.00 95 1014.8
20260906122004 24 198 0.0 0.0 0.00 0.13 0.00 94 1014.8
20260906121512 23 198 0.0 0.0 0.00 0.13 0.00 94 1014.8
20260906121006 23 215 0.0 0.0 0.00 0.13 0.00 94 1014.8
20260906120505 23 215 0.0 0.0 0.00 0.13 0.00 95 1014.6
20260906120015 23 215 0.0 0.0 0.00 0.13 0.00 94 1014.7
20260906115503 23 215 0.0 0.0 0.00 0.13 0.00 94 1014.6
20260906115003 23 215 0.0 0.0 0.00 0.13 0.00 94 1014.6
20260906114519 23 215 0.0 0.0 0.00 0.13 0.00 94 1014.5
20260906114004 23 215 0.0 0.0 0.00 0.13 0.00 94 1014.5
20260906113507 23 215 0.0 0.0 0.00 0.13 0.00 94 1014.5
20260906113018 23 215 0.0 0.0 0.00 0.13 0.00 93 1014.3
20260906112507 23 215 0.0 0.0 0.00 0.13 0.00 93 1014.1
20260906112008 23 215 0.0 0.0 0.00 0.13 0.00 93 1014.1
20260906111516 23 215 0.0 0.0 0.00 0.13 0.00 93 1014.0
20260906111007 23 215 0.0 0.0 0.00 0.13 0.00 93 1014.1
20260906110506 23 215 0.0 0.0 0.00 0.13 0.00 93 1014.0
20260906110022 23 215 0.0 0.0 0.00 0.13 0.00 93 1013.8
20260906105506 23 215 0.0 0.0 0.00 0.13 0.00 93 1013.6
20260906105008 23 215 0.0 0.0 0.00 0.13 0.00 93 1013.5
20260906104520 23 215 0.0 0.0 0.00 0.13 0.00 93 1013.6
20260906104004 23 215 0.0 0.0 0.00 0.13 0.00 93 1013.5
20260906103507 23 215 0.0 0.0 0.00 0.13 0.00 93 1013.4
20260906103039 23 215 0.0 0.0 0.00 0.13 0.00 93 1013.3
20260906102511 23 215 0.0 0.0 0.00 0.13 0.00 93 1013.2
20260906102005 23 215 0.0 0.0 0.00 0.13 0.00 93 1013.3
20260906101523 23 215 0.0 0.0 0.00 0.13 0.00 93 1013.2
20260906101011 23 215 0.0 0.0 0.00 0.13 0.00 93 1013.2
20260906100510 23 215 0.0 0.0 0.00 0.13 0.00 93 1013.2
20260906100026 23 215 0.0 0.0 0.00 0.13 0.00 93 1013.2
20260906095507 23 215 0.0 0.0 0.00 0.13 0.00 93 1013.2
20260906095009 23 215 0.0 0.0 0.00 0.13 0.00 93 1012.9
20260906094519 23 215 0.0 0.0 0.00 0.13 0.00 93 1013.0
20260906094008 23 215 0.0 0.0 0.00 0.13 0.00 93 1013.1
20260906093509 23 215 0.0 0.0 0.00 0.13 0.00 92 1013.0
20260906093019 23 215 0.0 0.0 0.00 0.13 0.00 92 1012.9
20260906092507 23 215 0.0 0.0 0.00 0.13 0.00 92 1012.8
20260906092007 23 215 0.0 0.0 0.00 0.13 0.00 92 1012.7
20260906091525 23 215 0.0 0.0 0.00 0.13 0.00 93 1012.6
20260906091008 23 215 0.0 0.0 0.00 0.13 0.00 93 1012.5
20260906090507 23 215 0.0 0.0 0.00 0.13 0.00 93 1012.5
20260906090021 23 215 0.0 0.0 0.00 0.13 0.00 93 1012.4
20260906085512 23 215 0.0 0.0 0.00 0.13 0.00 93 1012.3
20260906085009 23 215 0.0 0.0 0.00 0.13 0.00 92 1012.4
20260906084523 23 215 0.0 0.0 0.00 0.13 0.00 92 1012.5
20260906084010 23 215 0.0 0.0 0.00 0.13 0.00 92 1012.5
20260906083507 23 215 0.0 0.0 0.00 0.13 0.00 92 1012.3
20260906083026 23 215 0.0 0.0 0.00 0.13 0.00 92 1012.3
20260906082508 23 215 0.0 0.0 0.00 0.13 0.00 92 1012.4
20260906082011 23 215 0.0 0.0 0.00 0.13 0.00 92 1012.5
20260906081525 23 215 0.0 0.0 0.00 0.13 0.00 92 1012.7
20260906081008 23 215 0.0 0.0 0.00 0.13 0.00 92 1012.6
20260906080508 23 215 0.0 0.0 0.00 0.13 0.00 92 1012.5
20260906080028 23 215 0.0 0.0 0.00 0.13 0.00 92 1012.4
20260906075511 23 215 0.0 0.0 0.00 0.13 0.00 92 1012.3
20260906075011 23 215 0.0 0.0 0.00 0.13 0.00 91 1012.3
20260906074529 24 215 0.0 0.0 0.00 0.13 0.00 91 1012.5
20260906074011 24 215 0.0 0.0 0.00 0.13 0.00 91 1012.5
20260906073512 24 215 0.0 0.0 0.00 0.13 0.00 91 1012.6
20260906073023 24 215 0.0 0.0 0.00 0.13 0.00 91 1012.7
20260906072510 24 215 0.0 0.0 0.00 0.13 0.00 91 1012.7
20260906072008 24 215 0.0 0.0 0.00 0.13 0.00 91 1012.7
20260906071526 24 214 0.0 0.0 0.00 0.13 0.00 91 1012.7
20260906071010 24 237 0.0 0.0 0.00 0.13 0.00 91 1012.9
20260906070507 24 236 0.0 0.0 0.00 0.13 0.00 91 1013.0
20260906070015 24 238 0.0 0.0 0.00 0.13 0.00 91 1013.0
20260906065508 24 238 0.0 0.0 0.00 0.13 0.00 91 1013.0
20260906065004 24 239 0.0 0.0 0.00 0.13 0.00 91 1013.2
20260906064503 24 232 0.0 0.0 0.00 0.13 0.00 91 1013.4
20260906064004 24 231 0.0 0.0 0.00 0.13 0.00 91 1013.4
20260906063506 24 231 0.0 0.0 0.00 0.13 0.00 91 1013.6
20260906063008 24 232 0.0 0.0 0.00 0.13 0.00 91 1013.7
20260906062504 24 232 0.0 0.0 0.00 0.13 0.00 91 1013.8
20260906062006 24 232 0.0 0.0 0.00 0.13 0.00 91 1013.7
20260906061512 24 232 0.0 0.0 0.00 0.13 0.00 91 1013.7
20260906061004 24 234 0.0 0.0 0.00 0.13 0.00 91 1013.8
20260906060506 24 234 0.0 0.0 0.00 0.13 0.00 90 1013.9
20260906060023 24 234 0.0 0.0 0.00 0.13 0.00 90 1014.0
20260906055503 24 234 0.0 0.0 0.00 0.13 0.00 90 1013.9
20260906055007 24 211 0.0 0.0 0.00 0.13 0.00 90 1014.0
20260906054534 24 210 0.0 0.0 0.00 0.13 0.00 90 1014.1
20260906054003 24 210 0.0 0.0 0.00 0.13 0.00 89 1014.2
20260906053502 24 210 0.0 0.0 0.00 0.13 0.00 89 1014.1
20260906053009 24 210 0.0 0.0 0.00 0.13 0.00 89 1014.1
20260906052503 24 210 0.0 0.0 0.00 0.13 0.00 89 1014.2
20260906052007 25 210 0.0 0.0 0.00 0.13 0.00 89 1014.3
20260906051514 25 210 0.0 0.0 0.00 0.13 0.00 89 1014.2
20260906051007 25 210 0.0 0.0 0.00 0.13 0.00 89 1014.2
20260906050509 25 211 0.0 0.0 0.00 0.13 0.00 89 1014.3
20260906050011 25 211 0.0 0.0 0.00 0.13 0.00 88 1014.3
20260906045509 25 220 0.0 0.0 0.00 0.13 0.00 89 1014.3
20260906045008 25 225 0.0 0.0 0.00 0.13 0.00 89 1014.2
20260906044508 25 230 0.0 0.0 0.00 0.13 0.00 88 1014.3
20260906044007 25 229 0.0 0.0 0.00 0.13 0.00 1014.3
20260906043510 25 228 0.0 0.0 0.00 0.13 0.00 1014.3
20260906043030 25 216 0.0 0.0 0.00 0.13 0.00 1014.3
20260906042504 25 217 0.0 0.0 0.00 0.13 0.00 1014.4
20260906042003 25 205 0.0 0.0 0.00 0.13 0.00 87 1014.4
20260906041507 25 193 0.0 1.6 0.00 0.13 0.00 87 1014.4
20260906041003 25 188 0.0 3.2 0.00 0.13 0.00 87 1014.4
20260906040503 25 184 0.0 3.2 0.00 0.13 0.00 87 1014.5
20260906040016 25 191 0.0 1.6 0.00 0.13 0.00 87 1014.6
20260906035508 25 213 0.0 0.0 0.00 0.13 0.13 88 1014.5
20260906035003 25 190 0.0 0.0 0.00 0.13 0.13 87 1014.5
20260906034521 25 195 0.0 0.0 0.00 0.13 0.13 87 1014.5
20260906034011 25 196 0.0 0.0 0.00 0.13 0.13 87 1014.5
20260906033503 25 201 0.0 1.6 0.00 0.13 0.13 87 1014.5
20260906033015 26 202 0.0 1.6 0.00 0.13 0.13 87 1014.5
20260906032509 26 207 0.0 1.6 0.00 0.13 0.13 87 1014.6
20260906032015 26 190 0.0 6.4 0.00 0.13 0.13 87 1014.7
20260906031512 26 195 0.0 6.4 0.00 0.13 0.13 88 1014.7
20260906031004 26 215 0.0 6.4 0.00 0.13 0.13 88 1014.7
20260906030504 26 196 0.0 6.4 0.00 0.13 0.13 88 1014.7
20260906030012 26 167 0.0 1.6 0.00 0.13 0.13 87 1014.7
20260906025506 26 196 0.0 3.2 0.00 0.13 0.13 87 1014.6
20260906025006 26 192 0.0 3.2 0.00 0.13 0.13 87 1014.7
20260906024517 26 188 0.0 3.2 0.00 0.13 0.13 86 1014.7
20260906024002 26 181 0.0 1.6 0.00 0.13 0.13 86 1014.6
20260906023506 26 144 0.0 1.6 0.00 0.13 0.13 86 1014.7
20260906023025 26 180 0.0 3.2 0.00 0.13 0.13 86 1014.8
20260906022511 26 196 0.0 3.2 0.00 0.13 0.13 86 1014.9
20260906022003 26 148 0.0 1.6 0.00 0.13 0.13 86 1014.9
20260906021537 26 186 0.0 1.6 0.00 0.13 0.13 86 1014.9
20260906021016 26 148 0.0 4.8 0.00 0.13 0.13 86 1014.8
20260906020503 26 177 0.0 4.8 0.00 0.13 0.13 87 1014.7
20260906020021 26 192 0.0 4.8 0.00 0.13 0.13 87 1014.7
20260906015505 26 164 0.0 4.8 0.00 0.13 0.13 87 1014.7
20260906015006 26 159 0.0 3.2 0.00 0.13 0.13 87 1014.7
20260906014519 26 153 0.0 3.2 0.00 0.13 0.13 87 1014.7
20260906014008 26 147 0.0 1.6 0.00 0.13 0.13 87 1014.5
20260906013507 26 147 0.0 1.6 0.00 0.13 0.13 87 1014.5
20260906013032 26 151 0.0 1.6 0.00 0.13 0.13 87 1014.5
20260906012508 26 141 0.0 1.6 0.00 0.13 0.13 86 1014.3
20260906012009 26 128 0.0 1.6 0.00 0.13 0.13 86 1014.2
20260906011532 26 145 0.0 1.6 0.00 0.13 0.13 86 1014.1
20260906011006 26 175 0.0 0.0 0.00 0.13 0.13 86 1014.0
20260906010508 26 175 0.0 0.0 0.00 0.13 0.13 85 1014.0
20260906010034 27 175 0.0 0.0 0.00 0.13 0.13 85 1013.9
20260906005515 27 175 0.0 0.0 0.00 0.13 0.13 84 1013.8
20260906005009 27 175 0.0 0.0 0.00 0.13 0.13 84 1013.9
20260906004517 27 175 0.0 1.6 0.00 0.13 0.13 84 1013.8
20260906004012 27 175 0.0 1.6 0.00 0.13 0.13 84 1013.8
20260906003507 27 175 0.0 0.0 0.00 0.13 0.13 83 1014.0
20260906003025 27 175 0.0 0.0 0.00 0.13 0.13 83 1014.0
20260906002510 27 175 0.0 0.0 0.00 0.13 0.13 82 1013.8
20260906002008 27 175 0.0 0.0 0.00 0.13 0.13 82 1013.9
20260906001521 27 175 0.0 0.0 0.00 0.13 0.13 82 1013.9
20260906001010 28 175 0.0 0.0 0.00 0.13 0.13 82 1014.1
20260906000511 28 175 0.0 0.0 0.00 0.13 0.13 81 1014.0
20260906000022 28 175 0.0 1.6 0.00 0.13 0.13 81 1013.8
20260905235510 28 175 0.0 1.6 0.00 0.13 0.13 80 1013.5
20260905235013 28 171 0.0 1.6 0.00 0.13 0.13 79 1013.6
20260905234532 28 167 0.0 1.6 0.00 0.13 0.13 78 1013.5
20260905234008 29 168 0.0 1.6 0.00 0.13 0.13 78 1013.4
20260905233510 29 171 0.0 1.6 0.00 0.13 0.13 77 1013.4
20260905233018 30 118 0.0 1.6 0.00 0.13 0.13 77 1013.5
20260905232503 30 120 0.0 3.2 0.00 0.13 0.13 76 1013.6
20260905232008 30 107 0.0 4.8 0.00 0.13 0.13 75 1013.4
20260905231525 31 79 0.0 4.8 0.00 0.13 0.13 74 1013.5
20260905231011 31 89 0.0 4.8 0.00 0.13 0.13 73 1013.5
20260905230508 31 80 0.0 9.7 0.00 0.13 0.13 73 1013.4
20260905230029 32 94 1.6 9.7 0.00 0.13 0.13 73 1013.5
20260905225519 32 110 0.0 6.4 0.00 0.13 0.13 73 1013.5
20260905225012 32 89 0.0 11.3 0.00 0.13 0.13 72 1013.6
20260905224529 32 69 1.6 11.3 0.00 0.13 0.13 73 1013.5
20260905224012 31 34 0.0 4.8 0.00 0.13 0.13 73 1013.5
20260905223520 31 92 0.0 11.3 0.00 0.13 0.13 74 1013.5
20260905223020 31 101 4.8 11.3 0.03 0.13 0.13 74 1013.5
20260905222514 31 42 0.0 6.4 0.03 0.13 0.13 76 1013.5
20260905222007 31 86 0.0 6.4 0.05 0.13 0.13 75 1013.5
20260905221517 31 49 0.0 6.4 0.05 0.13 0.13 75 1013.7
20260905221010 31 67 1.6 6.4 0.05 0.13 0.13 78 1013.5
20260905220510 31 360 0.0 0.0 0.05 0.13 0.13 78 1013.4
20260905220026 30 360 0.0 0.0 0.10 0.13 0.13 80 1013.3
20260905215509 30 360 0.0 0.0 0.13 0.13 0.13 81 1013.2
20260905215011 30 360 0.0 1.6 0.13 0.13 0.13 80 1013.2
20260905214533 29 360 0.0 1.6 0.13 0.13 0.13 80 1013.2
20260905214018 29 327 0.0 3.2 0.13 0.13 0.13 78 1013.2
20260905213509 29 189 0.0 3.2 0.13 0.13 0.13 78 1013.1
20260905213030 29 286 0.0 6.4 0.10 0.10 0.10 74 1013.2
20260905212519 29 290 0.0 14.5 0.10 0.10 0.10 75 1013.3
20260905212008 29 272 0.0 14.5 0.08 0.08 0.08 75 1013.5
20260905211531 30 236 1.6 12.9 0.08 0.08 0.08 78 1013.4
20260905211017 30 331 0.0 4.8 0.08 0.08 0.08 76 1013.2
20260905210507 30 36 0.0 6.4 0.08 0.08 0.08 74 1013.3
20260905210023 30 323 0.0 11.3 0.03 0.03 0.03 70 1013.4
20260905205510 31 17 3.2 16.1 0.00 0.00 0.00 67 1013.2
20260905205013 31 23 1.6 19.3 0.00 0.00 0.00 67 1013.2
20260905204519 31 340 6.4 19.3 0.00 0.00 0.00 68 1013.3
20260905204012 31 10 9.7 27.4 0.00 0.00 0.00 67 1013.3
20260905203515 31 328 16.1 29.0 0.00 0.00 0.00 65 1013.4